| time (UTC) | temp F | wind direction | speed MPH | gust MPH | rain 1hr in | rain 24hr in | rain mn in | humidity % | barometer mb |
| 20260510062531 | 51 | 197 | 1.0 | 4.0 | 0.00 | 0.00 | 0.00 | 83 | 1002.1 |
| 20260510062030 | 51 | 157 | 0.0 | 6.0 | 0.00 | 0.00 | 0.00 | 83 | 1001.9 |
| 20260510061530 | 51 | 71 | 3.0 | 6.0 | 0.00 | 0.00 | 0.00 | 83 | 1001.9 |
| 20260510061029 | 51 | 196 | 2.0 | 6.0 | 0.00 | 0.00 | 0.00 | 83 | 1001.9 |
| 20260510060531 | 51 | 128 | 2.0 | 12.0 | 0.00 | 0.00 | 0.00 | 82 | 1002.0 |
| 20260510060034 | 51 | 133 | 3.0 | 12.0 | 0.00 | 0.00 | 0.00 | 82 | 1002.1 |
| 20260510055527 | 51 | 174 | 2.0 | 11.0 | 0.00 | 0.00 | 0.00 | 82 | 1002.3 |
| 20260510055027 | 51 | 163 | 2.0 | 11.0 | 0.00 | 0.00 | 0.00 | 82 | 1002.3 |
| 20260510054527 | 51 | 138 | 5.0 | 10.0 | 0.00 | 0.00 | 0.00 | 82 | 1002.2 |
| 20260510054026 | 51 | 192 | 3.0 | 10.0 | 0.00 | 0.00 | 0.00 | 83 | 1002.3 |
| 20260510053524 | 51 | 185 | 5.0 | 10.0 | 0.00 | 0.00 | 0.00 | 83 | 1002.2 |
| 20260510053024 | 50 | 192 | 3.0 | 8.0 | 0.00 | 0.00 | 0.00 | 83 | 1002.3 |
| 20260510052523 | 50 | 178 | 4.0 | 8.0 | 0.00 | 0.00 | 0.00 | 83 | 1002.2 |
| 20260510052023 | 51 | 136 | 2.0 | 8.0 | 0.00 | 0.00 | 0.00 | 83 | 1002.2 |
| 20260510051529 | 51 | 141 | 3.0 | 8.0 | 0.00 | 0.00 | 0.00 | 83 | 1002.2 |
| 20260510051022 | 51 | 169 | 3.0 | 10.0 | 0.00 | 0.00 | 0.00 | 83 | 1002.2 |
| 20260510050523 | 51 | 132 | 4.0 | 11.0 | 0.00 | 0.00 | 0.00 | 83 | 1002.2 |
| 20260510050020 | 50 | 194 | 2.0 | 11.0 | 0.00 | 0.00 | 0.00 | 83 | 1002.1 |
| 20260510045520 | 50 | 179 | 3.0 | 9.0 | 0.00 | 0.00 | 0.00 | 83 | 1002.0 |
| 20260510045021 | 50 | 189 | 3.0 | 11.0 | 0.00 | 0.00 | 0.00 | 83 | 1002.0 |
| 20260510044522 | 50 | 175 | 2.0 | 10.0 | 0.00 | 0.00 | 0.00 | 83 | 1002.1 |
| 20260510044018 | 50 | 115 | 2.0 | 10.0 | 0.00 | 0.00 | 0.00 | 83 | 1002.1 |
| 20260510043518 | 50 | 170 | 3.0 | 8.0 | 0.00 | 0.00 | 0.00 | 83 | 1002.1 |
| 20260510043018 | 50 | 126 | 3.0 | 12.0 | 0.00 | 0.00 | 0.00 | 83 | 1001.9 |
| 20260510042516 | 50 | 136 | 4.0 | 12.0 | 0.00 | 0.00 | 0.00 | 83 | 1002.1 |
| 20260510042015 | 50 | 167 | 2.0 | 10.0 | 0.00 | 0.00 | 0.00 | 83 | 1001.9 |
| 20260510041515 | 50 | 126 | 4.0 | 10.0 | 0.00 | 0.00 | 0.00 | 83 | 1001.8 |
| 20260510041014 | 50 | 185 | 3.0 | 8.0 | 0.00 | 0.00 | 0.00 | 83 | 1001.7 |
| 20260510040513 | 50 | 159 | 2.0 | 11.0 | 0.00 | 0.00 | 0.00 | 83 | 1001.7 |
| 20260510040012 | 50 | 171 | 4.0 | 12.0 | 0.00 | 0.00 | 0.00 | 83 | 1001.6 |
| 20260510035510 | 50 | 141 | 3.0 | 12.0 | 0.00 | 0.00 | 0.00 | 83 | 1001.7 |
| 20260510035010 | 50 | 176 | 4.0 | 9.0 | 0.00 | 0.00 | 0.00 | 83 | 1001.8 |
| 20260510034513 | 50 | 152 | 4.0 | 10.0 | 0.00 | 0.00 | 0.00 | 83 | 1001.9 |
| 20260510034010 | 50 | 134 | 3.0 | 12.0 | 0.00 | 0.00 | 0.00 | 83 | 1001.9 |
| 20260510033510 | 50 | 172 | 3.0 | 13.0 | 0.00 | 0.00 | 0.00 | 83 | 1002.0 |
| 20260510033009 | 50 | 153 | 3.0 | 13.0 | 0.00 | 0.00 | 0.00 | 83 | 1002.1 |
| 20260510032509 | 50 | 173 | 3.0 | 8.0 | 0.00 | 0.00 | 0.00 | 83 | 1002.2 |
| 20260510032009 | 50 | 132 | 2.0 | 10.0 | 0.00 | 0.00 | 0.00 | 83 | 1002.1 |
| 20260510031509 | 50 | 174 | 3.0 | 12.0 | 0.00 | 0.00 | 0.00 | 84 | 1002.1 |
| 20260510031108 | 50 | 132 | 4.0 | 12.0 | 0.00 | 0.00 | 0.00 | 84 | 1002.0 |
| 20260510030507 | 49 | 122 | 4.0 | 11.0 | 0.00 | 0.00 | 0.00 | 84 | 1002.1 |
| 20260510030007 | 49 | 142 | 2.0 | 9.0 | 0.00 | 0.00 | 0.00 | 85 | 1002.3 |
| 20260510025507 | 49 | 154 | 3.0 | 8.0 | 0.00 | 0.00 | 0.00 | 85 | 1002.2 |
| 20260510025006 | 49 | 170 | 3.0 | 9.0 | 0.00 | 0.00 | 0.00 | 85 | 1002.2 |
| 20260510024507 | 49 | 155 | 4.0 | 9.0 | 0.00 | 0.00 | 0.00 | 85 | 1002.2 |
| 20260510024005 | 49 | 142 | 3.0 | 7.0 | 0.00 | 0.00 | 0.00 | 85 | 1002.2 |
| 20260510023504 | 49 | 130 | 3.0 | 8.0 | 0.00 | 0.00 | 0.00 | 85 | 1002.2 |
| 20260510023007 | 49 | 143 | 3.0 | 9.0 | 0.00 | 0.00 | 0.00 | 85 | 1002.3 |
| 20260510022505 | 48 | 128 | 4.0 | 9.0 | 0.00 | 0.00 | 0.00 | 85 | 1002.2 |
| 20260510022005 | 48 | 126 | 4.0 | 9.0 | 0.00 | 0.00 | 0.00 | 86 | 1002.3 |
| 20260510021503 | 48 | 132 | 3.0 | 7.0 | 0.00 | 0.00 | 0.00 | 86 | 1002.4 |
| 20260510021007 | 48 | 103 | 2.0 | 10.0 | 0.00 | 0.00 | 0.00 | 86 | 1002.5 |
| 20260510020503 | 48 | 165 | 3.0 | 10.0 | 0.00 | 0.00 | 0.00 | 86 | 1002.7 |
| 20260510020003 | 48 | 144 | 3.0 | 9.0 | 0.00 | 0.00 | 0.00 | 85 | 1002.6 |
| 20260510015503 | 48 | 111 | 3.0 | 8.0 | 0.00 | 0.00 | 0.00 | 85 | 1002.6 |
| 20260510015002 | 48 | 130 | 4.0 | 8.0 | 0.00 | 0.00 | 0.00 | 85 | 1002.6 |
| 20260510014502 | 48 | 136 | 4.0 | 9.0 | 0.00 | 0.00 | 0.00 | 85 | 1002.5 |
| 20260510014002 | 49 | 132 | 6.0 | 9.0 | 0.00 | 0.00 | 0.00 | 85 | 1002.5 |
| 20260510013501 | 49 | 157 | 5.0 | 8.0 | 0.00 | 0.00 | 0.00 | 85 | 1002.5 |
| 20260510013109 | 49 | 180 | 4.0 | 8.0 | 0.00 | 0.00 | 0.00 | 85 | 1002.6 |
| 20260510012602 | 49 | 137 | 4.0 | 7.0 | 0.00 | 0.00 | 0.00 | 85 | 1002.7 |
| 20260510012100 | 48 | 118 | 4.0 | 8.0 | 0.00 | 0.00 | 0.00 | 84 | 1002.8 |
| 20260510011600 | 48 | 132 | 4.0 | 8.0 | 0.00 | 0.00 | 0.00 | 84 | 1002.8 |
| 20260510011100 | 48 | 148 | 3.0 | 10.0 | 0.00 | 0.00 | 0.00 | 84 | 1002.8 |
| 20260510010602 | 49 | 159 | 3.0 | 10.0 | 0.00 | 0.00 | 0.00 | 84 | 1002.8 |
| 20260510010112 | 49 | 148 | 3.0 | 8.0 | 0.00 | 0.00 | 0.00 | 83 | 1002.9 |
| 20260510005558 | 49 | 134 | 2.0 | 8.0 | 0.00 | 0.00 | 0.00 | 83 | 1002.9 |
| 20260510005057 | 49 | 119 | 3.0 | 8.0 | 0.00 | 0.00 | 0.00 | 83 | 1003.0 |
| 20260510004603 | 49 | 131 | 2.0 | 7.0 | 0.00 | 0.00 | 0.00 | 83 | 1003.1 |
| 20260510004057 | 49 | 120 | 3.0 | 6.0 | 0.00 | 0.00 | 0.00 | 83 | 1003.0 |
| 20260510003558 | 48 | 123 | 3.0 | 7.0 | 0.00 | 0.00 | 0.00 | 83 | 1003.0 |
| 20260510003102 | 49 | 132 | 2.0 | 7.0 | 0.00 | 0.00 | 0.00 | 83 | 1003.0 |
| 20260510002600 | 49 | 138 | 3.0 | 6.0 | 0.00 | 0.00 | 0.00 | 83 | 1003.1 |
| 20260510002057 | 49 | 131 | 3.0 | 8.0 | 0.00 | 0.00 | 0.00 | 83 | 1003.0 |
| 20260510001558 | 49 | 133 | 3.0 | 8.0 | 0.00 | 0.00 | 0.00 | 82 | 1003.1 |
| 20260510001059 | 49 | 129 | 2.0 | 7.0 | 0.00 | 0.00 | 0.00 | 82 | 1003.1 |
| 20260510000555 | 49 | 141 | 3.0 | 8.0 | 0.00 | 0.00 | 0.00 | 82 | 1003.0 |
| 20260510000113 | 49 | 109 | 3.0 | 7.0 | 0.00 | 0.00 | 0.00 | 81 | 1003.0 |
| 20260509235556 | 49 | 131 | 2.0 | 5.0 | 0.00 | 0.00 | 0.00 | 81 | 1002.9 |
| 20260509235055 | 50 | 117 | 2.0 | 9.0 | 0.00 | 0.00 | 0.00 | 80 | 1002.9 |
| 20260509234605 | 50 | 131 | 3.0 | 9.0 | 0.00 | 0.00 | 0.00 | 80 | 1002.9 |
| 20260509234058 | 50 | 138 | 2.0 | 7.0 | 0.00 | 0.00 | 0.00 | 79 | 1002.9 |
| 20260509233554 | 50 | 132 | 2.0 | 7.0 | 0.00 | 0.00 | 0.00 | 79 | 1003.0 |
| 20260509233055 | 51 | 138 | 2.0 | 12.0 | 0.00 | 0.00 | 0.00 | 78 | 1002.9 |
| 20260509232555 | 51 | 188 | 4.0 | 12.0 | 0.00 | 0.00 | 0.00 | 78 | 1002.8 |
| 20260509232054 | 51 | 121 | 2.0 | 13.0 | 0.00 | 0.00 | 0.00 | 78 | 1002.7 |
| 20260509231553 | 51 | 134 | 6.0 | 13.0 | 0.00 | 0.00 | 0.00 | 78 | 1002.8 |
| 20260509231053 | 50 | 206 | 4.0 | 12.0 | 0.00 | 0.00 | 0.00 | 78 | 1002.9 |
| 20260509230553 | 50 | 130 | 1.0 | 9.0 | 0.00 | 0.00 | 0.00 | 78 | 1002.8 |
| 20260509230052 | 50 | 126 | 4.0 | 9.0 | 0.00 | 0.00 | 0.00 | 78 | 1002.8 |
| 20260509225552 | 50 | 132 | 2.0 | 9.0 | 0.00 | 0.00 | 0.00 | 78 | 1002.8 |
| 20260509225051 | 50 | 137 | 3.0 | 9.0 | 0.00 | 0.00 | 0.00 | 77 | 1002.9 |
| 20260509224552 | 50 | 181 | 3.0 | 8.0 | 0.00 | 0.00 | 0.00 | 77 | 1002.9 |
| 20260509224053 | 51 | 171 | 3.0 | 11.0 | 0.00 | 0.00 | 0.00 | 77 | 1002.9 |
| 20260509223549 | 51 | 165 | 2.0 | 11.0 | 0.00 | 0.00 | 0.00 | 77 | 1002.9 |
| 20260509223050 | 51 | 138 | 4.0 | 9.0 | 0.00 | 0.00 | 0.00 | 76 | 1003.0 |
| 20260509222549 | 51 | 118 | 4.0 | 12.0 | 0.00 | 0.00 | 0.00 | 77 | 1003.0 |
| 20260509222048 | 51 | 133 | 4.0 | 13.0 | 0.00 | 0.00 | 0.00 | 76 | 1003.0 |
| 20260509221604 | 51 | 134 | 4.0 | 9.0 | 0.00 | 0.00 | 0.00 | 76 | 1003.1 |
| 20260509221048 | 52 | 149 | 3.0 | 6.0 | 0.00 | 0.00 | 0.00 | 76 | 1003.1 |
| 20260509220550 | 52 | 147 | 2.0 | 11.0 | 0.00 | 0.00 | 0.00 | 76 | 1003.2 |
| 20260509220059 | 52 | 142 | 2.0 | 11.0 | 0.00 | 0.00 | 0.00 | 76 | 1003.0 |
| 20260509215546 | 51 | 111 | 4.0 | 11.0 | 0.00 | 0.00 | 0.00 | 76 | 1003.0 |
| 20260509215046 | 51 | 108 | 3.0 | 15.0 | 0.00 | 0.00 | 0.00 | 76 | 1003.1 |
| 20260509214545 | 52 | 140 | 5.0 | 15.0 | 0.00 | 0.00 | 0.00 | 75 | 1003.0 |
| 20260509214045 | 52 | 138 | 4.0 | 14.0 | 0.00 | 0.00 | 0.00 | 76 | 1003.2 |
| 20260509213545 | 51 | 144 | 3.0 | 12.0 | 0.00 | 0.00 | 0.00 | 76 | 1003.2 |
| 20260509213045 | 51 | 132 | 4.0 | 14.0 | 0.00 | 0.00 | 0.00 | 76 | 1003.3 |
| 20260509212545 | 51 | 128 | 4.0 | 19.0 | 0.00 | 0.00 | 0.00 | 76 | 1003.2 |
| 20260509212046 | 51 | 159 | 4.0 | 19.0 | 0.00 | 0.00 | 0.00 | 76 | 1003.2 |
| 20260509211546 | 51 | 132 | 4.0 | 11.0 | 0.00 | 0.00 | 0.00 | 76 | 1003.2 |
| 20260509211045 | 51 | 130 | 4.0 | 13.0 | 0.00 | 0.00 | 0.00 | 75 | 1003.3 |
| 20260509210543 | 51 | 120 | 5.0 | 13.0 | 0.00 | 0.00 | 0.00 | 75 | 1003.4 |
| 20260509210049 | 52 | 169 | 4.0 | 12.0 | 0.00 | 0.00 | 0.00 | 75 | 1003.4 |
| 20260509205541 | 52 | 134 | 7.0 | 16.0 | 0.00 | 0.00 | 0.00 | 74 | 1003.4 |
| 20260509205041 | 52 | 121 | 5.0 | 16.0 | 0.00 | 0.00 | 0.00 | 74 | 1003.4 |
| 20260509204541 | 51 | 164 | 4.0 | 10.0 | 0.00 | 0.00 | 0.00 | 74 | 1003.4 |
| 20260509204041 | 51 | 153 | 4.0 | 14.0 | 0.00 | 0.00 | 0.00 | 74 | 1003.4 |
| 20260509203541 | 51 | 168 | 6.0 | 15.0 | 0.00 | 0.00 | 0.00 | 75 | 1003.5 |
| 20260509203045 | 52 | 198 | 5.0 | 12.0 | 0.00 | 0.00 | 0.00 | 74 | 1003.6 |
| 20260509202540 | 52 | 130 | 4.0 | 10.0 | 0.00 | 0.00 | 0.00 | 72 | 1003.6 |
| 20260509202043 | 52 | 164 | 5.0 | 10.0 | 0.00 | 0.00 | 0.00 | 72 | 1003.6 |
| 20260509201541 | 53 | 209 | 4.0 | 13.0 | 0.00 | 0.00 | 0.00 | 70 | 1003.7 |
| 20260509201039 | 53 | 133 | 4.0 | 13.0 | 0.00 | 0.00 | 0.00 | 70 | 1003.7 |
| 20260509200539 | 54 | 159 | 3.0 | 11.0 | 0.00 | 0.00 | 0.00 | 69 | 1003.6 |
| 20260509200043 | 54 | 83 | 4.0 | 11.0 | 0.00 | 0.00 | 0.00 | 69 | 1003.6 |
| 20260509195539 | 54 | 150 | 5.0 | 9.0 | 0.00 | 0.00 | 0.00 | 67 | 1003.6 |
| 20260509195041 | 54 | 138 | 3.0 | 7.0 | 0.00 | 0.00 | 0.00 | 70 | 1003.5 |
| 20260509194538 | 54 | 127 | 2.0 | 8.0 | 0.00 | 0.00 | 0.00 | 71 | 1003.6 |
| 20260509194037 | 54 | 130 | 4.0 | 9.0 | 0.00 | 0.00 | 0.00 | 71 | 1003.6 |
| 20260509193539 | 54 | 177 | 2.0 | 9.0 | 0.00 | 0.00 | 0.00 | 72 | 1003.6 |
| 20260509193044 | 53 | 129 | 4.0 | 9.0 | 0.00 | 0.00 | 0.00 | 71 | 1003.6 |
| 20260509192537 | 53 | 105 | 5.0 | 10.0 | 0.00 | 0.00 | 0.00 | 73 | 1003.6 |
| 20260509192045 | 53 | 173 | 5.0 | 9.0 | 0.00 | 0.00 | 0.00 | 74 | 1003.7 |
| 20260509191543 | 52 | 142 | 4.0 | 9.0 | 0.00 | 0.00 | 0.00 | 75 | 1003.8 |
| 20260509191035 | 52 | 135 | 4.0 | 7.0 | 0.00 | 0.00 | 0.00 | 74 | 1003.9 |
| 20260509190537 | 52 | 133 | 4.0 | 7.0 | 0.00 | 0.00 | 0.00 | 75 | 1003.9 |
| 20260509190043 | 52 | 148 | 3.0 | 7.0 | 0.00 | 0.00 | 0.00 | 74 | 1004.0 |
| 20260509185533 | 51 | 126 | 4.0 | 7.0 | 0.00 | 0.00 | 0.00 | 75 | 1004.1 |
| 20260509185032 | 51 | 142 | 3.0 | 14.0 | 0.00 | 0.00 | 0.00 | 76 | 1004.2 |
| 20260509184536 | 52 | 134 | 6.0 | 14.0 | 0.00 | 0.00 | 0.00 | 73 | 1004.3 |
| 20260509184031 | 52 | 126 | 4.0 | 7.0 | 0.00 | 0.00 | 0.00 | 74 | 1004.4 |
| 20260509183534 | 53 | 158 | 4.0 | 10.0 | 0.00 | 0.00 | 0.00 | 73 | 1004.5 |
| 20260509183038 | 53 | 162 | 3.0 | 9.0 | 0.00 | 0.00 | 0.00 | 71 | 1004.5 |
| 20260509182530 | 54 | 128 | 4.0 | 10.0 | 0.00 | 0.00 | 0.00 | 65 | 1004.5 |
| 20260509182031 | 54 | 134 | 4.0 | 11.0 | 0.00 | 0.00 | 0.00 | 65 | 1004.5 |
| 20260509181529 | 55 | 123 | 6.0 | 11.0 | 0.00 | 0.00 | 0.00 | 62 | 1004.4 |
| 20260509181032 | 55 | 138 | 4.0 | 11.0 | 0.00 | 0.00 | 0.00 | 61 | 1004.4 |
| 20260509180529 | 56 | 111 | 5.0 | 10.0 | 0.00 | 0.00 | 0.00 | 59 | 1004.4 |
| 20260509180028 | 56 | 134 | 5.0 | 12.0 | 0.00 | 0.00 | 0.00 | 58 | 1004.3 |
| 20260509175527 | 56 | 133 | 6.0 | 12.0 | 0.00 | 0.00 | 0.00 | 56 | 1004.4 |
| 20260509175028 | 57 | 115 | 6.0 | 12.0 | 0.00 | 0.00 | 0.00 | 54 | 1004.3 |
| 20260509174528 | 58 | 131 | 7.0 | 10.0 | 0.00 | 0.00 | 0.00 | 51 | 1004.3 |
| 20260509174027 | 58 | 136 | 4.0 | 9.0 | 0.00 | 0.00 | 0.00 | 52 | 1004.3 |
| 20260509173526 | 59 | 136 | 4.0 | 8.0 | 0.00 | 0.00 | 0.00 | 49 | 1004.4 |
| 20260509173031 | 59 | 140 | 2.0 | 9.0 | 0.00 | 0.00 | 0.00 | 47 | 1004.4 |
| 20260509172526 | 59 | 134 | 3.0 | 10.0 | 0.00 | 0.00 | 0.00 | 44 | 1004.4 |
| 20260509172026 | 59 | 145 | 3.0 | 10.0 | 0.00 | 0.00 | 0.00 | 43 | 1004.4 |
| 20260509171530 | 59 | 176 | 5.0 | 10.0 | 0.00 | 0.00 | 0.00 | 42 | 1004.3 |
| 20260509171027 | 59 | 151 | 4.0 | 15.0 | 0.00 | 0.00 | 0.00 | 41 | 1004.4 |
| 20260509170527 | 60 | 144 | 6.0 | 15.0 | 0.00 | 0.00 | 0.00 | 39 | 1004.4 |
| 20260509170029 | 60 | 175 | 4.0 | 12.0 | 0.00 | 0.00 | 0.00 | 40 | 1004.4 |
| 20260509165523 | 60 | 186 | 5.0 | 13.0 | 0.00 | 0.00 | 0.00 | 40 | 1004.5 |
| 20260509165022 | 60 | 53 | 5.0 | 12.0 | 0.00 | 0.00 | 0.00 | 39 | 1004.5 |
| 20260509164522 | 60 | 126 | 3.0 | 12.0 | 0.00 | 0.00 | 0.00 | 40 | 1004.6 |
| 20260509164026 | 60 | 130 | 4.0 | 9.0 | 0.00 | 0.00 | 0.00 | 39 | 1004.6 |
| 20260509163522 | 60 | 90 | 3.0 | 8.0 | 0.00 | 0.00 | 0.00 | 36 | 1004.7 |
| 20260509163020 | 59 | 174 | 4.0 | 12.0 | 0.00 | 0.00 | 0.00 | 38 | 1004.7 |
| 20260509162523 | 59 | 199 | 5.0 | 12.0 | 0.00 | 0.00 | 0.00 | 35 | 1004.8 |
| 20260509162022 | 60 | 84 | 5.0 | 10.0 | 0.00 | 0.00 | 0.00 | 34 | 1004.8 |
| 20260509161520 | 60 | 152 | 3.0 | 8.0 | 0.00 | 0.00 | 0.00 | 34 | 1004.8 |
| 20260509161018 | 60 | 115 | 3.0 | 10.0 | 0.00 | 0.00 | 0.00 | 33 | 1005.0 |
| 20260509160518 | 61 | 144 | 5.0 | 11.0 | 0.00 | 0.00 | 0.00 | 34 | 1005.1 |
| 20260509160019 | 60 | 169 | 4.0 | 11.0 | 0.00 | 0.00 | 0.00 | 35 | 1005.2 |
| 20260509155515 | 60 | 109 | 1.0 | 6.0 | 0.00 | 0.00 | 0.00 | 37 | 1005.2 |
| 20260509155019 | 59 | 63 | 2.0 | 9.0 | 0.00 | 0.00 | 0.00 | 39 | 1005.2 |
| 20260509154514 | 58 | 15 | 2.0 | 14.0 | 0.00 | 0.00 | 0.00 | 37 | 1005.3 |
| 20260509154013 | 58 | 219 | 4.0 | 14.0 | 0.00 | 0.00 | 0.00 | 35 | 1005.4 |
| 20260509153511 | 59 | 277 | 2.0 | 9.0 | 0.00 | 0.00 | 0.00 | 37 | 1005.6 |
| 20260509153013 | 59 | 233 | 3.0 | 10.0 | 0.00 | 0.00 | 0.00 | 36 | 1005.6 |
| 20260509152511 | 59 | 150 | 5.0 | 10.0 | 0.00 | 0.00 | 0.00 | 36 | 1005.8 |
| 20260509152011 | 59 | 154 | 5.0 | 9.0 | 0.00 | 0.00 | 0.00 | 36 | 1005.8 |
| 20260509151510 | 59 | 123 | 2.0 | 9.0 | 0.00 | 0.00 | 0.00 | 38 | 1005.9 |
| 20260509151008 | 58 | 133 | 1.0 | 9.0 | 0.00 | 0.00 | 0.00 | 38 | 1005.8 |
| 20260509150507 | 58 | 139 | 3.0 | 7.0 | 0.00 | 0.00 | 0.00 | 36 | 1005.9 |
| 20260509150007 | 58 | 211 | 1.0 | 4.0 | 0.00 | 0.00 | 0.00 | 37 | 1005.8 |
| 20260509145506 | 58 | 263 | 1.0 | 8.0 | 0.00 | 0.00 | 0.00 | 38 | 1005.9 |
| 20260509145008 | 57 | 120 | 1.0 | 8.0 | 0.00 | 0.00 | 0.00 | 38 | 1005.9 |
| 20260509144505 | 57 | 255 | 1.0 | 7.0 | 0.00 | 0.00 | 0.00 | 37 | 1006.0 |
| 20260509144004 | 57 | 144 | 1.0 | 8.0 | 0.00 | 0.00 | 0.00 | 39 | 1006.1 |
| 20260509143501 | 56 | 315 | 1.0 | 8.0 | 0.00 | 0.00 | 0.00 | 38 | 1006.1 |
| 20260509143000 | 56 | 258 | 3.0 | 14.0 | 0.00 | 0.00 | 0.00 | 39 | 1006.1 |
| 20260509142600 | 56 | 157 | 2.0 | 14.0 | 0.00 | 0.00 | 0.00 | 39 | 1006.2 |
| 20260509142059 | 56 | 144 | 5.0 | 11.0 | 0.00 | 0.00 | 0.00 | 38 | 1006.1 |
| 20260509141559 | 56 | 281 | 2.0 | 8.0 | 0.00 | 0.00 | 0.00 | 39 | 1006.3 |
| 20260509141100 | 55 | 218 | 2.0 | 8.0 | 0.00 | 0.00 | 0.00 | 40 | 1006.2 |
| 20260509140558 | 55 | 277 | 3.0 | 8.0 | 0.00 | 0.00 | 0.00 | 41 | 1006.3 |
| 20260509140057 | 55 | 36 | 1.0 | 6.0 | 0.00 | 0.00 | 0.00 | 43 | 1006.2 |
| 20260509135559 | 54 | 161 | 1.0 | 10.0 | 0.00 | 0.00 | 0.00 | 43 | 1006.3 |
| 20260509135056 | 54 | 325 | 1.0 | 10.0 | 0.00 | 0.00 | 0.00 | 42 | 1006.3 |
| 20260509134607 | 54 | 189 | 2.0 | 7.0 | 0.00 | 0.00 | 0.00 | 42 | 1006.4 |
| 20260509134056 | 54 | 273 | 3.0 | 9.0 | 0.00 | 0.00 | 0.00 | 42 | 1006.2 |
| 20260509133555 | 54 | 235 | 2.0 | 9.0 | 0.00 | 0.00 | 0.00 | 42 | 1006.2 |
| 20260509133055 | 54 | 333 | 3.0 | 8.0 | 0.00 | 0.00 | 0.00 | 42 | 1006.3 |
| 20260509132555 | 54 | 238 | 3.0 | 9.0 | 0.00 | 0.00 | 0.00 | 41 | 1006.3 |
| 20260509132057 | 55 | 275 | 2.0 | 12.0 | 0.00 | 0.00 | 0.00 | 42 | 1006.4 |
| 20260509131622 | 54 | 205 | 3.0 | 12.0 | 0.00 | 0.00 | 0.00 | 41 | 1006.5 |
| 20260509131053 | 54 | 242 | 1.0 | 12.0 | 0.00 | 0.00 | 0.00 | 42 | 1006.6 |
| 20260509130552 | 53 | 234 | 5.0 | 11.0 | 0.00 | 0.00 | 0.00 | 41 | 1006.6 |
| 20260509125549 | 53 | 257 | 3.0 | 11.0 | 0.00 | 0.00 | 0.00 | 42 | 1006.6 |
| 20260509125051 | 53 | 244 | 3.0 | 8.0 | 0.00 | 0.00 | 0.00 | 45 | 1006.7 |
| 20260509124549 | 52 | 254 | 2.0 | 6.0 | 0.00 | 0.00 | 0.00 | 46 | 1006.8 |
| 20260509124045 | 51 | 181 | 1.0 | 5.0 | 0.00 | 0.00 | 0.00 | 50 | 1006.8 |
| 20260509123544 | 51 | 292 | 1.0 | 8.0 | 0.00 | 0.00 | 0.00 | 50 | 1006.8 |
| 20260509123050 | 50 | 175 | 3.0 | 8.0 | 0.00 | 0.00 | 0.00 | 50 | 1006.8 |
| 20260509122541 | 50 | 304 | 2.0 | 4.0 | 0.00 | 0.00 | 0.00 | 51 | 1006.9 |
| 20260509122040 | 49 | 149 | 1.0 | 4.0 | 0.00 | 0.00 | 0.00 | 50 | 1006.9 |
| 20260509121541 | 48 | 154 | 1.0 | 6.0 | 0.00 | 0.00 | 0.00 | 50 | 1006.9 |
| 20260509121040 | 48 | 302 | 1.0 | 6.0 | 0.00 | 0.00 | 0.00 | 53 | 1006.9 |
| 20260509120538 | 47 | 274 | 1.0 | 3.0 | 0.00 | 0.00 | 0.00 | 52 | 1006.9 |
| 20260509120035 | 47 | 207 | 0.0 | 3.0 | 0.00 | 0.00 | 0.00 | 53 | 1006.9 |
| 20260509115534 | 46 | 220 | 0.0 | 4.0 | 0.00 | 0.00 | 0.00 | 55 | 1006.9 |
| 20260509115034 | 45 | 136 | 1.0 | 4.0 | 0.00 | 0.00 | 0.00 | 56 | 1007.0 |
| 20260509114531 | 45 | 173 | 0.0 | 8.0 | 0.00 | 0.00 | 0.00 | 57 | 1007.0 |
| 20260509114030 | 44 | 183 | 2.0 | 8.0 | 0.00 | 0.00 | 0.00 | 59 | 1006.9 |
| 20260509113531 | 43 | 172 | 0.0 | 3.0 | 0.00 | 0.00 | 0.00 | 60 | 1007.0 |
| 20260509113026 | 42 | 141 | 1.0 | 3.0 | 0.00 | 0.00 | 0.00 | 63 | 1007.0 |
| 20260509112525 | 42 | 247 | 0.0 | 2.0 | 0.00 | 0.00 | 0.00 | 65 | 1007.0 |
| 20260509112024 | 41 | 302 | 0.0 | 1.0 | 0.00 | 0.00 | 0.00 | 60 | 1007.0 |
| 20260509111524 | 41 | 302 | 0.0 | 1.0 | 0.00 | 0.00 | 0.00 | 61 | 1007.0 |
| 20260509111023 | 41 | 302 | 0.0 | 1.0 | 0.00 | 0.00 | 0.00 | 61 | 1006.9 |
| 20260509110526 | 40 | 302 | 0.0 | 1.0 | 0.00 | 0.00 | 0.00 | 59 | 1006.9 |
| 20260509110025 | 40 | 302 | 0.0 | 1.0 | 0.00 | 0.00 | 0.00 | 61 | 1006.9 |
| 20260509105520 | 40 | 302 | 0.0 | 1.0 | 0.00 | 0.00 | 0.00 | 61 | 1006.9 |
| 20260509105022 | 39 | 302 | 0.0 | 1.0 | 0.00 | 0.00 | 0.00 | 61 | 1007.0 |
| 20260509104518 | 39 | 302 | 0.0 | 0.0 | 0.00 | 0.00 | 0.00 | 62 | 1007.0 |
| 20260509104017 | 39 | 302 | 0.0 | 0.0 | 0.00 | 0.00 | 0.00 | 63 | 1006.9 |
| 20260509103515 | 39 | 302 | 0.0 | 0.0 | 0.00 | 0.00 | 0.00 | 63 | 1006.7 |
| 20260509103015 | 38 | 302 | 0.0 | 0.0 | 0.00 | 0.00 | 0.00 | 64 | 1006.7 |
| 20260509102515 | 38 | 302 | 0.0 | 0.0 | 0.00 | 0.00 | 0.00 | 64 | 1006.7 |
| 20260509102015 | 38 | 302 | 0.0 | 0.0 | 0.00 | 0.00 | 0.00 | 65 | 1006.7 |
| 20260509101520 | 37 | 302 | 0.0 | 0.0 | 0.00 | 0.00 | 0.00 | 64 | 1006.7 |
| 20260509101013 | 37 | 302 | 0.0 | 2.0 | 0.00 | 0.00 | 0.00 | 65 | 1006.8 |
| 20260509100513 | 37 | 302 | 0.0 | 2.0 | 0.00 | 0.00 | 0.00 | 66 | 1006.7 |
| 20260509100013 | 37 | 302 | 0.0 | 2.0 | 0.00 | 0.00 | 0.00 | 65 | 1006.7 |
| 20260509095513 | 37 | 302 | 0.0 | 0.0 | 0.00 | 0.00 | 0.00 | 65 | 1006.6 |
| 20260509095013 | 37 | 302 | 0.0 | 0.0 | 0.00 | 0.00 | 0.00 | 65 | 1006.5 |
| 20260509094514 | 37 | 302 | 0.0 | 1.0 | 0.00 | 0.00 | 0.00 | 65 | 1006.5 |
| 20260509094014 | 37 | 302 | 0.0 | 1.0 | 0.00 | 0.00 | 0.00 | 65 | 1006.4 |
| 20260509093512 | 38 | 302 | 0.0 | 1.0 | 0.00 | 0.00 | 0.00 | 66 | 1006.4 |
| 20260509093019 | 38 | 302 | 0.0 | 0.0 | 0.00 | 0.00 | 0.00 | 66 | 1006.3 |
| 20260509092511 | 38 | 302 | 0.0 | 0.0 | 0.00 | 0.00 | 0.00 | 65 | 1006.3 |
| 20260509092011 | 38 | 302 | 0.0 | 1.0 | 0.00 | 0.00 | 0.00 | 66 | 1006.3 |
| 20260509091511 | 38 | 302 | 0.0 | 1.0 | 0.00 | 0.00 | 0.00 | 65 | 1006.2 |
| 20260509091011 | 38 | 302 | 0.0 | 0.0 | 0.00 | 0.00 | 0.00 | 65 | 1006.3 |
| 20260509090511 | 38 | 302 | 0.0 | 0.0 | 0.00 | 0.00 | 0.00 | 66 | 1006.2 |
| 20260509090011 | 38 | 302 | 0.0 | 0.0 | 0.00 | 0.00 | 0.00 | 64 | 1006.3 |
| 20260509085509 | 38 | 302 | 0.0 | 0.0 | 0.00 | 0.00 | 0.00 | 64 | 1006.3 |
| 20260509085008 | 38 | 302 | 0.0 | 1.0 | 0.00 | 0.00 | 0.00 | 65 | 1006.2 |
| 20260509084513 | 38 | 302 | 0.0 | 1.0 | 0.00 | 0.00 | 0.00 | 65 | 1006.3 |
| 20260509084007 | 38 | 302 | 0.0 | 1.0 | 0.00 | 0.00 | 0.00 | 66 | 1006.2 |
| 20260509083507 | 38 | 302 | 0.0 | 1.0 | 0.00 | 0.00 | 0.00 | 67 | 1006.2 |
| 20260509083005 | 38 | 302 | 0.0 | 2.0 | 0.00 | 0.00 | 0.00 | 67 | 1006.2 |
| 20260509082504 | 38 | 302 | 0.0 | 2.0 | 0.00 | 0.00 | 0.00 | 67 | 1006.2 |
| 20260509082006 | 38 | 208 | 0.0 | 1.0 | 0.00 | 0.00 | 0.00 | 66 | 1006.2 |
| 20260509081508 | 38 | 208 | 0.0 | 1.0 | 0.00 | 0.00 | 0.00 | 67 | 1006.2 |
| 20260509081006 | 37 | 208 | 0.0 | 1.0 | 0.00 | 0.00 | 0.00 | 67 | 1006.2 |
| 20260509080502 | 37 | 209 | 0.0 | 2.0 | 0.00 | 0.00 | 0.00 | 67 | 1006.3 |
| 20260509080003 | 37 | 209 | 0.0 | 2.0 | 0.00 | 0.00 | 0.00 | 68 | 1006.4 |
| 20260509075503 | 37 | 305 | 0.0 | 0.0 | 0.00 | 0.00 | 0.00 | 67 | 1006.4 |
| 20260509075001 | 37 | 305 | 0.0 | 0.0 | 0.00 | 0.00 | 0.00 | 68 | 1006.4 |
| 20260509074502 | 38 | 305 | 0.0 | 0.0 | 0.00 | 0.00 | 0.00 | 67 | 1006.4 |
| 20260509074000 | 38 | 305 | 0.0 | 0.0 | 0.00 | 0.00 | 0.00 | 68 | 1006.4 |
| 20260509073600 | 37 | 305 | 0.0 | 0.0 | 0.00 | 0.00 | 0.00 | 67 | 1006.4 |
| 20260509073500 | 37 | 305 | 0.0 | 0.0 | 0.00 | 0.00 | 0.00 | 67 | 1006.5 |
| 20260509073102 | 38 | 305 | 0.0 | 0.0 | 0.00 | 0.00 | 0.00 | 67 | 1006.5 |
| 20260509072600 | 38 | 305 | 0.0 | 0.0 | 0.00 | 0.00 | 0.00 | 67 | 1006.5 |
| 20260509072100 | 37 | 305 | 0.0 | 0.0 | 0.00 | 0.00 | 0.00 | 67 | 1006.5 |
| 20260509071616 | 37 | 305 | 0.0 | 0.0 | 0.00 | 0.00 | 0.00 | 67 | 1006.5 |
| 20260509071059 | 37 | 305 | 0.0 | 0.0 | 0.00 | 0.00 | 0.00 | 67 | 1006.6 |
| 20260509070559 | 37 | 305 | 0.0 | 0.0 | 0.00 | 0.00 | 0.00 | 67 | 1006.5 |
| 20260509070107 | 37 | 305 | 0.0 | 0.0 | 0.00 | 0.00 | 0.00 | 67 | 1006.5 |
| 20260509065558 | 37 | 305 | 0.0 | 0.0 | 0.00 | 0.00 | 0.00 | 67 | 1006.5 |
| 20260509065057 | 37 | 305 | 0.0 | 0.0 | 0.00 | 0.00 | 0.00 | 67 | 1006.5 |
| 20260509064558 | 37 | 305 | 0.0 | 0.0 | 0.00 | 0.00 | 0.00 | 68 | 1006.6 |
| 20260509064057 | 37 | 305 | 0.0 | 0.0 | 0.00 | 0.00 | 0.00 | 68 | 1006.5 |
| 20260509063558 | 37 | 305 | 0.0 | 0.0 | 0.00 | 0.00 | 0.00 | 68 | 1006.5 |
| 20260509063056 | 37 | 305 | 0.0 | 0.0 | 0.00 | 0.00 | 0.00 | 68 | 1006.5 |